QPF
0.01 0.01 0.01 0.02 0.03 0.04 0.05 0.06 0.08 0.09 0.09 0.09 0.09 0.08 0.07 0.06 0.05 0.05 0.04 0.02 0.02 0.03 0.05 0.07 0.10 0.14 0.17 0.20 0.24 0.27 0.30 0.32 0.23 0.15 0.12 0.12 0.10 0.07 0.06 0.06 0.05 0.03 0.03
0.01 0.01 0.01 0.01 0.01 0.01 0.02 0.03 0.05 0.06 0.07 0.08 0.09 0.09 0.06 0.05 0.06 0.05 0.03 0.02 0.02 0.02 0.03 0.05 0.08 0.11 0.15 0.17 0.20 0.20 0.22 0.25 0.20 0.12 0.09 0.09 0.09 0.08 0.08 0.08 0.07 0.06 0.05
0.01 0.01 0.01 0.01 0.01 0.01 0.01 0.02 0.03 0.04 0.06 0.07 0.08 0.08 0.07 0.07 0.06 0.05 0.04 0.03 0.03 0.02 0.02 0.04 0.07 0.09 0.11 0.13 0.14 0.15 0.15 0.19 0.17 0.12 0.10 0.10 0.11 0.11 0.11 0.10 0.09 0.08 0.06
0.00 0.01 0.01 0.01 0.02 0.02 0.02 0.02 0.02 0.03 0.05 0.06 0.07 0.08 0.08 0.07 0.07 0.06 0.05 0.04 0.03 0.02 0.02 0.03 0.04 0.06 0.09 0.09 0.11 0.12 0.13 0.12 0.11 0.12 0.13 0.14 0.14 0.16 0.15 0.15 0.15 0.12 0.07
0.00 0.01 0.01 0.01 0.01 0.02 0.02 0.02 0.02 0.02 0.03 0.05 0.07 0.08 0.09 0.09 0.07 0.08 0.07 0.05 0.04 0.03 0.02 0.02 0.02 0.04 0.06 0.08 0.10 0.11 0.12 0.11 0.10 0.12 0.14 0.16 0.18 0.19 0.18 0.16 0.14 0.12 0.08
0.00 0.00 0.00 0.00 0.01 0.01 0.01 0.01 0.02 0.02 0.04 0.06 0.07 0.08 0.10 0.10 0.06 0.04 0.05 0.05 0.06 0.04 0.02 0.01 0.02 0.03 0.04 0.06 0.10 0.11 0.13 0.13 0.13 0.15 0.17 0.18 0.21 0.20 0.17 0.15 0.14 0.13 0.12
0.00 0.00 0.00 0.00 0.00 0.00 0.00 0.01 0.02 0.03 0.04 0.06 0.07 0.10 0.12 0.15 0.09 0.04 0.03 0.04 0.06 0.05 0.03 0.02 0.02 0.03 0.05 0.04 0.04 0.06 0.09 0.13 0.15 0.18 0.20 0.18 0.18 0.17 0.14 0.13 0.13 0.13 0.12
0.00 0.00 0.00 0.01 0.01 0.01 0.01 0.02 0.03 0.03 0.04 0.05 0.06 0.09 0.13 0.16 0.12 0.06 0.04 0.04 0.08 0.06 0.03 0.02 0.02 0.03 0.06 0.07 0.04 0.04 0.07 0.10 0.13 0.15 0.19 0.18 0.15 0.14 0.12 0.10 0.08 0.07 0.07
0.00 0.00 0.00 0.01 0.01 0.02 0.03 0.04 0.05 0.06 0.05 0.04 0.05 0.09 0.14 0.20 0.18 0.10 0.07 0.07 0.10 0.07 0.04 0.02 0.02 0.02 0.04 0.06 0.07 0.04 0.04 0.07 0.09 0.09 0.09 0.09 0.08 0.06 0.06 0.06 0.04 0.03 0.03
0.00 0.01 0.01 0.01 0.03 0.04 0.05 0.06 0.07 0.09 0.06 0.04 0.05 0.09 0.16 0.27 0.30 0.19 0.12 0.11 0.12 0.09 0.05 0.03 0.02 0.02 0.01 0.02 0.04 0.05 0.04 0.03 0.03 0.03 0.02 0.02 0.02 0.02 0.02 0.02 0.02 0.01 0.01
0.02 0.03 0.03 0.04 0.06 0.05 0.06 0.08 0.09 0.09 0.09 0.08 0.07 0.11 0.18 0.32 0.40 0.28 0.19 0.18 0.16 0.10 0.05 0.04 0.02 0.01 0.00 0.00 0.02 0.03 0.03 0.02 0.01 0.01 0.01 0.01 0.01 0.01 0.00 0.00 0.00 0.00 0.00
0.06 0.06 0.06 0.07 0.05 0.03 0.07 0.10 0.11 0.13 0.12 0.11 0.10 0.11 0.19 0.34 0.46 0.34 0.23 0.24 0.22 0.13 0.07 0.04 0.01 0.00 0.00 0.00 0.01 0.01 0.00 0.01 0.00 0.00 0.00 0.00 0.00 0.00 0.00 0.00 0.00 0.00 0.00
0.07 0.07 0.07 0.07 0.07 0.07 0.08 0.09 0.10 0.12 0.12 0.11 0.11 0.13 0.19 0.34 0.49 0.43 0.30 0.30 0.24 0.17 0.09 0.03 0.01 0.00 0.00 0.00 0.00 0.00 0.00 0.00 0.00 0.00 0.00 0.00 0.00 0.00 0.00 0.00 0.00 0.00 0.00
0.07 0.07 0.08 0.08 0.08 0.09 0.10 0.09 0.09 0.10 0.12 0.13 0.12 0.14 0.19 0.36 0.56 0.53 0.41 0.37 0.28 0.19 0.10 0.02 0.01 0.00 0.00 0.00 0.00 0.00 0.00 0.00 0.00 0.00 0.00 0.00 0.00 0.00 0.00 0.00 0.00 0.00 0.00
0.09 0.09 0.10 0.10 0.10 0.10 0.11 0.10 0.10 0.11 0.10 0.10 0.10 0.12 0.15 0.32 0.59 0.59 0.48 0.42 0.35 0.23 0.10 0.02 0.01 0.00 0.00 0.00 0.00 0.00 0.00 0.00 0.00 0.00 0.00 0.00 0.00 0.00 0.00 0.00 0.00 0.00 0.00
0.12 0.11 0.12 0.13 0.12 0.11 0.11 0.12 0.08 0.05 0.02 0.01 0.02 0.05 0.08 0.22 0.52 0.55 0.45 0.41 0.37 0.22 0.08 0.01 0.01 0.00 0.01 0.00 0.00 0.00 0.00 0.00 0.00 0.00 0.00 0.00 0.00 0.00 0.00 0.00 0.00 0.00 0.00
0.16 0.16 0.16 0.15 0.14 0.12 0.12 0.14 0.15 0.09 0.03 0.01 0.00 0.01 0.06 0.18 0.38 0.47 0.39 0.33 0.25 0.12 0.04 0.01 0.00 0.00 0.00 0.00 0.00 0.00 0.00 0.00 0.00 0.00 0.00 0.00 0.00 0.00 0.00 0.00 0.00 0.00 0.00
0.18 0.17 0.14 0.14 0.14 0.13 0.13 0.15 0.17 0.16 0.11 0.06 0.03 0.03 0.06 0.17 0.30 0.37 0.31 0.23 0.15 0.06 0.02 0.01 0.00 0.00 0.00 0.00 0.00 0.00 0.00 0.00 0.00 0.00 0.00 0.00 0.00 0.00 0.00 0.00 0.00 0.00 0.00
0.21 0.20 0.18 0.17 0.15 0.13 0.13 0.15 0.16 0.16 0.17 0.15 0.10 0.06 0.08 0.16 0.25 0.28 0.23 0.14 0.08 0.03 0.01 0.00 0.00 0.00 0.00 0.00 0.00 0.00 0.00 0.00 0.00 0.00 0.00 0.00 0.00 0.00 0.00 0.00 0.00 0.00 0.00
0.19 0.13 0.10 0.13 0.13 0.13 0.14 0.15 0.16 0.16 0.18 0.17 0.13 0.09 0.09 0.14 0.19 0.19 0.13 0.08 0.04 0.02 0.01 0.00 0.00 0.00 0.00 0.00 0.00 0.00 0.00 0.00 0.00 0.00 0.00 0.00 0.00 0.00 0.00 0.00 0.00 0.00 0.00
0.18 0.14 0.05 0.06 0.10 0.11 0.13 0.14 0.15 0.15 0.17 0.17 0.12 0.08 0.06 0.06 0.09 0.08 0.06 0.04 0.03 0.01 0.00 0.00 0.00 0.00 0.00 0.00 0.00 0.00 0.00 0.00 0.00 0.00 0.00 0.00 0.00 0.00 0.00 0.00 0.00 0.00 0.00
0.15 0.14 0.11 0.10 0.11 0.11 0.11 0.12 0.13 0.13 0.15 0.15 0.11 0.07 0.05 0.04 0.04 0.04 0.03 0.02 0.01 0.00 0.00 0.00 0.00 0.00 0.00 0.00 0.00 0.00 0.00 0.00 0.00 0.00 0.00 0.00 0.00 0.00 0.00 0.00 0.00 0.00 0.00
0.11 0.09 0.09 0.09 0.11 0.09 0.09 0.12 0.12 0.12 0.12 0.11 0.08 0.05 0.04 0.03 0.03 0.02 0.01 0.01 0.01 0.00 0.00 0.00 0.00 0.00 0.00 0.00 0.00 0.00 0.00 0.00 0.00 0.00 0.00 0.00 0.00 0.00 0.00 0.00 0.00 0.00 0.00
0.08 0.07 0.08 0.10 0.11 0.13 0.13 0.12 0.10 0.09 0.08 0.07 0.05 0.03 0.02 0.02 0.02 0.01 0.01 0.01 0.00 0.00 0.00 0.00 0.00 0.00 0.00 0.00 0.00 0.00 0.00 0.00 0.00 0.00 0.00 0.00 0.00 0.00 0.00 0.00 0.00 0.00 0.00
0.10 0.10 0.11 0.11 0.11 0.12 0.11 0.09 0.08 0.07 0.06 0.05 0.03 0.02 0.02 0.02 0.02 0.01 0.01 0.00 0.00 0.00 0.00 0.00 0.00 0.00 0.00 0.00 0.00 0.00 0.00 0.00 0.00 0.00 0.00 0.00 0.00 0.00 0.00 0.00 0.00 0.00 0.00
0.08 0.09 0.09 0.10 0.11 0.10 0.09 0.08 0.07 0.06 0.05 0.03 0.02 0.03 0.03 0.02 0.02 0.01 0.00 0.00 0.00 0.00 0.00 0.00 0.00 0.00 0.00 0.00 0.00 0.00 0.00 0.00 0.00 0.00 0.00 0.00 0.00 0.00 0.00 0.00 0.00 0.00 0.00
MSLP
1011.09 1011.07 1010.99 1010.84 1010.62 1010.33 1009.99 1009.65 1009.31 1009.01 1008.74 1008.52 1008.32 1008.14 1007.95 1007.75 1007.55 1007.36 1007.19 1007.04 1006.95 1006.88 1006.84 1006.80 1006.74 1006.63 1006.45 1006.22 1005.94 1005.66 1005.40 1005.22 1005.14 1005.18 1005.36 1005.67 1006.07 1006.55 1007.06 1007.57 1008.07 1008.54 1008.96
1011.01 1010.92 1010.78 1010.60 1010.36 1010.08 1009.78 1009.47 1009.17 1008.89 1008.63 1008.37 1008.13 1007.88 1007.62 1007.36 1007.10 1006.87 1006.68 1006.54 1006.45 1006.40 1006.36 1006.31 1006.23 1006.09 1005.88 1005.62 1005.33 1005.05 1004.84 1004.72 1004.74 1004.92 1005.24 1005.70 1006.26 1006.87 1007.49 1008.10 1008.66 1009.16 1009.59
1010.65 1010.49 1010.30 1010.08 1009.84 1009.60 1009.35 1009.10 1008.86 1008.63 1008.39 1008.14 1007.87 1007.58 1007.28 1006.98 1006.70 1006.46 1006.27 1006.15 1006.09 1006.07 1006.06 1006.03 1005.95 1005.79 1005.56 1005.27 1004.97 1004.69 1004.49 1004.42 1004.51 1004.78 1005.20 1005.77 1006.43 1007.13 1007.82 1008.48 1009.08 1009.60 1010.04
1010.00 1009.77 1009.54 1009.31 1009.10 1008.90 1008.72 1008.55 1008.39 1008.22 1008.03 1007.80 1007.53 1007.23 1006.90 1006.58 1006.29 1006.06 1005.91 1005.83 1005.83 1005.87 1005.91 1005.92 1005.87 1005.73 1005.50 1005.21 1004.90 1004.63 1004.45 1004.40 1004.53 1004.83 1005.31 1005.93 1006.63 1007.36 1008.08 1008.74 1009.33 1009.84 1010.27
1009.11 1008.84 1008.59 1008.36 1008.18 1008.04 1007.94 1007.86 1007.78 1007.68 1007.54 1007.34 1007.08 1006.78 1006.44 1006.12 1005.84 1005.63 1005.52 1005.51 1005.58 1005.70 1005.83 1005.91 1005.93 1005.84 1005.66 1005.40 1005.12 1004.86 1004.70 1004.67 1004.80 1005.12 1005.60 1006.20 1006.88 1007.59 1008.27 1008.90 1009.45 1009.92 1010.32
1008.10 1007.80 1007.55 1007.34 1007.20 1007.11 1007.08 1007.08 1007.07 1007.03 1006.93 1006.76 1006.51 1006.20 1005.87 1005.55 1005.28 1005.11 1005.04 1005.10 1005.26 1005.48 1005.70 1005.90 1006.01 1006.02 1005.92 1005.74 1005.51 1005.31 1005.17 1005.16 1005.29 1005.59 1006.04 1006.59 1007.21 1007.84 1008.44 1008.98 1009.45 1009.86 1010.22
1007.09 1006.79 1006.54 1006.36 1006.24 1006.21 1006.22 1006.26 1006.30 1006.30 1006.23 1006.07 1005.82 1005.51 1005.17 1004.86 1004.60 1004.46 1004.44 1004.57 1004.81 1005.12 1005.46 1005.77 1006.01 1006.14 1006.16 1006.09 1005.96 1005.83 1005.75 1005.76 1005.90 1006.17 1006.56 1007.04 1007.57 1008.10 1008.59 1009.03 1009.41 1009.74 1010.05
1006.21 1005.93 1005.69 1005.51 1005.41 1005.39 1005.42 1005.48 1005.53 1005.53 1005.46 1005.29 1005.04 1004.72 1004.38 1004.06 1003.82 1003.70 1003.73 1003.90 1004.22 1004.62 1005.06 1005.49 1005.86 1006.12 1006.28 1006.33 1006.33 1006.30 1006.30 1006.36 1006.51 1006.77 1007.11 1007.51 1007.94 1008.36 1008.74 1009.08 1009.36 1009.62 1009.87
1005.55 1005.27 1005.03 1004.84 1004.73 1004.69 1004.70 1004.74 1004.77 1004.75 1004.66 1004.48 1004.21 1003.89 1003.54 1003.23 1003.00 1002.90 1002.96 1003.18 1003.54 1004.01 1004.53 1005.06 1005.54 1005.93 1006.22 1006.42 1006.54 1006.63 1006.72 1006.85 1007.03 1007.28 1007.59 1007.93 1008.28 1008.60 1008.89 1009.14 1009.35 1009.55 1009.76
1005.09 1004.80 1004.53 1004.32 1004.17 1004.08 1004.04 1004.03 1004.02 1003.96 1003.85 1003.65 1003.39 1003.07 1002.74 1002.45 1002.24 1002.16 1002.24 1002.49 1002.88 1003.39 1003.96 1004.55 1005.11 1005.61 1006.02 1006.34 1006.59 1006.79 1006.98 1007.19 1007.42 1007.68 1007.97 1008.27 1008.56 1008.83 1009.05 1009.24 1009.40 1009.56 1009.74
1004.74 1004.41 1004.11 1003.84 1003.63 1003.49 1003.39 1003.32 1003.26 1003.17 1003.04 1002.85 1002.61 1002.32 1002.04 1001.79 1001.62 1001.58 1001.68 1001.94 1002.34 1002.85 1003.45 1004.07 1004.67 1005.23 1005.72 1006.14 1006.49 1006.80 1007.08 1007.36 1007.64 1007.94 1008.24 1008.52 1008.79 1009.02 1009.21 1009.37 1009.51 1009.66 1009.83
1004.35 1003.99 1003.63 1003.31 1003.03 1002.82 1002.66 1002.55 1002.46 1002.36 1002.24 1002.09 1001.90 1001.69 1001.48 1001.31 1001.21 1001.21 1001.34 1001.60 1002.00 1002.50 1003.07 1003.68 1004.29 1004.87 1005.41 1005.89 1006.32 1006.70 1007.06 1007.41 1007.75 1008.08 1008.40 1008.69 1008.95 1009.18 1009.36 1009.52 1009.67 1009.82 1010.00
1003.81 1003.40 1002.99 1002.60 1002.27 1002.01 1001.81 1001.68 1001.58 1001.51 1001.45 1001.37 1001.28 1001.18 1001.08 1001.01 1001.00 1001.07 1001.24 1001.51 1001.89 1002.35 1002.88 1003.44 1004.02 1004.59 1005.13 1005.64 1006.11 1006.55 1006.97 1007.38 1007.76 1008.13 1008.47 1008.78 1009.06 1009.29 1009.49 1009.67 1009.84 1010.02 1010.22
1003.03 1002.56 1002.10 1001.68 1001.32 1001.03 1000.83 1000.70 1000.64 1000.63 1000.65 1000.69 1000.73 1000.77 1000.82 1000.88 1000.98 1001.12 1001.33 1001.61 1001.96 1002.38 1002.84 1003.34 1003.86 1004.39 1004.91 1005.42 1005.91 1006.38 1006.85 1007.29 1007.72 1008.12 1008.49 1008.82 1009.11 1009.37 1009.59 1009.80 1010.00 1010.21 1010.44
1002.00 1001.49 1001.00 1000.56 1000.19 999.91 999.73 999.65 999.66 999.74 999.88 1000.05 1000.24 1000.45 1000.65 1000.85 1001.06 1001.28 1001.53 1001.82 1002.14 1002.50 1002.89 1003.32 1003.77 1004.23 1004.72 1005.21 1005.70 1006.20 1006.69 1007.17 1007.62 1008.05 1008.45 1008.80 1009.12 1009.40 1009.64 1009.88 1010.11 1010.35 1010.62
1000.80 1000.27 999.77 999.34 998.99 998.75 998.62 998.61 998.71 998.90 999.16 999.47 999.82 1000.17 1000.51 1000.84 1001.16 1001.45 1001.73 1002.01 1002.30 1002.60 1002.93 1003.28 1003.66 1004.07 1004.51 1004.98 1005.47 1005.98 1006.49 1007.00 1007.48 1007.94 1008.36 1008.73 1009.07 1009.37 1009.64 1009.90 1010.16 1010.44 1010.74
999.58 999.04 998.56 998.16 997.86 997.68 997.62 997.69 997.87 998.16 998.54 998.98 999.45 999.92 1000.38 1000.81 1001.20 1001.54 1001.85 1002.12 1002.37 1002.61 1002.87 1003.15 1003.47 1003.83 1004.24 1004.70 1005.19 1005.71 1006.25 1006.78 1007.29 1007.78 1008.22 1008.61 1008.96 1009.28 1009.58 1009.86 1010.15 1010.45 1010.78
998.49 997.97 997.53 997.18 996.93 996.82 996.83 996.97 997.23 997.61 998.07 998.59 999.15 999.71 1000.24 1000.73 1001.16 1001.53 1001.83 1002.08 1002.29 1002.48 1002.68 1002.91 1003.18 1003.51 1003.89 1004.35 1004.85 1005.39 1005.95 1006.51 1007.06 1007.57 1008.03 1008.45 1008.82 1009.15 1009.46 1009.77 1010.08 1010.40 1010.75
997.65 997.17 996.78 996.48 996.30 996.25 996.32 996.52 996.84 997.26 997.77 998.34 998.94 999.54 1000.10 1000.62 1001.06 1001.42 1001.70 1001.92 1002.09 1002.24 1002.39 1002.58 1002.81 1003.12 1003.50 1003.95 1004.47 1005.04 1005.63 1006.22 1006.79 1007.33 1007.81 1008.25 1008.64 1008.99 1009.32 1009.64 1009.96 1010.30 1010.66
997.12 996.69 996.35 996.12 996.00 996.00 996.12 996.35 996.70 997.14 997.66 998.24 998.84 999.43 999.99 1000.49 1000.91 1001.25 1001.50 1001.69 1001.83 1001.94 1002.06 1002.22 1002.44 1002.73 1003.11 1003.57 1004.11 1004.69 1005.30 1005.92 1006.52 1007.08 1007.58 1008.04 1008.44 1008.80 1009.14 1009.47 1009.81 1010.16 1010.52
996.87 996.50 996.23 996.06 995.99 996.03 996.17 996.42 996.77 997.20 997.71 998.25 998.82 999.38 999.91 1000.38 1000.77 1001.08 1001.30 1001.46 1001.57 1001.66 1001.77 1001.92 1002.12 1002.42 1002.80 1003.27 1003.81 1004.41 1005.04 1005.67 1006.28 1006.85 1007.36 1007.82 1008.23 1008.61 1008.95 1009.28 1009.62 1009.97 1010.32
996.84 996.53 996.31 996.20 996.17 996.24 996.40 996.64 996.97 997.38 997.84 998.35 998.87 999.38 999.87 1000.29 1000.65 1000.93 1001.14 1001.29 1001.39 1001.48 1001.58 1001.73 1001.94 1002.23 1002.62 1003.09 1003.64 1004.24 1004.86 1005.49 1006.09 1006.66 1007.17 1007.62 1008.03 1008.40 1008.74 1009.06 1009.39 1009.72 1010.06
996.90 996.65 996.49 996.41 996.42 996.50 996.66 996.90 997.20 997.57 997.99 998.45 998.92 999.39 999.83 1000.23 1000.56 1000.83 1001.03 1001.18 1001.30 1001.40 1001.52 1001.68 1001.90 1002.21 1002.59 1003.06 1003.60 1004.18 1004.79 1005.39 1005.98 1006.52 1007.01 1007.44 1007.83 1008.18 1008.50 1008.80 1009.11 1009.41 1009.72
996.97 996.76 996.64 996.59 996.62 996.72 996.87 997.09 997.37 997.70 998.08 998.49 998.92 999.35 999.76 1000.14 1000.46 1000.74 1000.95 1001.13 1001.27 1001.40 1001.55 1001.74 1001.99 1002.30 1002.69 1003.15 1003.67 1004.22 1004.80 1005.37 1005.91 1006.41 1006.86 1007.27 1007.62 1007.94 1008.23 1008.50 1008.78 1009.05 1009.32
996.98 996.80 996.70 996.67 996.71 996.80 996.95 997.15 997.40 997.70 998.04 998.42 998.82 999.22 999.61 999.98 1000.32 1000.61 1000.85 1001.06 1001.25 1001.43 1001.63 1001.85 1002.13 1002.46 1002.85 1003.30 1003.80 1004.32 1004.86 1005.38 1005.88 1006.33 1006.73 1007.09 1007.40 1007.68 1007.93 1008.17 1008.41 1008.64 1008.87
996.92 996.75 996.66 996.64 996.67 996.76 996.89 997.07 997.30 997.57 997.88 998.23 998.60 998.99 999.37 999.74 1000.09 1000.40 1000.69 1000.95 1001.19 1001.42 1001.67 1001.94 1002.25 1002.61 1003.01 1003.46 1003.94 1004.43 1004.93 1005.40 1005.85 1006.25 1006.61 1006.91 1007.18 1007.41 1007.62 1007.83 1008.03 1008.22 1008.43
Thickness
5655 5654 5652 5652 5652 5654 5655 5657 5660 5664 5667 5672 5676 5679 5682 5685 5687 5687 5687 5688 5689 5690 5690 5690 5689 5689 5689 5689 5689 5688 5686 5683 5677 5677 5678 5681 5682 5683 5683 5683 5682 5681 5679
5639 5637 5636 5636 5635 5636 5638 5640 5643 5646 5651 5656 5661 5666 5671 5675 5678 5680 5681 5683 5682 5682 5683 5683 5683 5684 5684 5684 5684 5684 5684 5683 5677 5672 5670 5671 5671 5672 5672 5672 5670 5668 5666
5624 5621 5619 5618 5618 5619 5620 5623 5625 5629 5633 5639 5645 5651 5657 5663 5667 5671 5674 5676 5676 5676 5676 5675 5675 5676 5677 5677 5678 5678 5678 5678 5675 5669 5664 5663 5662 5662 5661 5659 5658 5656 5654
5607 5605 5602 5601 5602 5603 5605 5606 5609 5612 5617 5622 5629 5635 5642 5650 5656 5661 5665 5668 5669 5668 5668 5668 5668 5669 5669 5670 5670 5670 5671 5669 5666 5661 5657 5654 5653 5652 5651 5648 5646 5645 5644
5587 5585 5584 5584 5585 5586 5587 5589 5592 5596 5601 5606 5612 5619 5627 5635 5645 5651 5655 5659 5661 5660 5660 5661 5660 5661 5661 5662 5663 5663 5663 5661 5658 5654 5649 5646 5645 5643 5641 5640 5638 5636 5634
5570 5569 5569 5568 5569 5569 5571 5573 5576 5579 5583 5587 5593 5600 5608 5619 5629 5636 5643 5649 5652 5652 5651 5652 5652 5652 5653 5653 5654 5655 5655 5653 5650 5647 5643 5640 5638 5636 5635 5634 5632 5629 5626
5560 5559 5559 5558 5558 5559 5560 5561 5562 5563 5564 5567 5572 5579 5588 5598 5609 5620 5629 5637 5642 5643 5644 5645 5646 5645 5644 5644 5644 5644 5643 5643 5643 5641 5636 5634 5632 5631 5630 5628 5627 5626 5625
5553 5552 5552 5552 5552 5552 5552 5552 5552 5551 5551 5551 5554 5560 5567 5578 5590 5601 5612 5623 5631 5635 5636 5637 5638 5637 5637 5636 5635 5634 5633 5632 5633 5632 5630 5628 5627 5626 5625 5624 5623 5622 5621
5547 5546 5546 5546 5546 5546 5546 5546 5545 5544 5543 5543 5545 5548 5552 5560 5570 5582 5592 5607 5618 5624 5627 5629 5630 5629 5628 5629 5628 5625 5624 5622 5622 5622 5621 5620 5620 5620 5620 5619 5618 5616 5612
5541 5540 5539 5539 5539 5539 5540 5540 5540 5540 5539 5539 5540 5542 5544 5547 5554 5565 5576 5591 5604 5612 5616 5619 5621 5621 5620 5621 5620 5619 5617 5615 5615 5614 5613 5613 5614 5614 5615 5616 5616 5614 5612
5533 5531 5530 5529 5529 5531 5532 5534 5534 5535 5535 5535 5536 5537 5538 5539 5544 5552 5563 5575 5591 5601 5607 5610 5611 5611 5612 5613 5613 5612 5611 5610 5609 5608 5608 5608 5608 5608 5609 5612 5614 5615 5611
5521 5520 5520 5520 5521 5525 5527 5528 5528 5529 5530 5531 5532 5534 5535 5535 5538 5546 5555 5564 5576 5589 5598 5604 5604 5602 5604 5605 5606 5605 5605 5606 5605 5604 5603 5601 5601 5600 5602 5604 5608 5610 5610
5509 5509 5509 5510 5512 5515 5517 5520 5522 5523 5525 5528 5530 5532 5532 5532 5534 5540 5547 5555 5566 5577 5589 5595 5595 5594 5595 5597 5598 5598 5600 5601 5602 5600 5599 5597 5596 5596 5598 5600 5602 5604 5605
5497 5498 5499 5500 5504 5507 5510 5513 5516 5519 5522 5525 5527 5529 5530 5529 5530 5534 5541 5548 5558 5569 5579 5584 5586 5587 5591 5591 5591 5592 5595 5598 5600 5598 5596 5594 5593 5594 5595 5597 5598 5598 5597
5487 5488 5490 5492 5495 5499 5504 5508 5512 5515 5518 5521 5524 5526 5527 5527 5526 5529 5537 5543 5552 5562 5571 5576 5580 5582 5585 5586 5588 5590 5593 5596 5597 5596 5594 5592 5593 5594 5595 5596 5596 5596 5594
5480 5482 5484 5487 5491 5494 5499 5504 5508 5510 5514 5517 5520 5522 5524 5523 5521 5525 5532 5538 5546 5555 5566 5575 5579 5581 5583 5585 5586 5588 5591 5594 5595 5595 5594 5594 5594 5595 5595 5596 5596 5595 5594
5478 5480 5481 5484 5488 5491 5496 5500 5504 5506 5507 5511 5515 5518 5519 5518 5519 5522 5528 5536 5543 5551 5565 5575 5578 5581 5583 5585 5587 5589 5591 5593 5594 5594 5594 5595 5595 5594 5594 5594 5596 5595 5594
5480 5481 5482 5484 5487 5491 5495 5500 5504 5507 5509 5513 5512 5513 5515 5516 5518 5521 5527 5534 5543 5552 5567 5575 5579 5582 5585 5586 5588 5590 5592 5593 5593 5594 5594 5594 5594 5593 5593 5593 5593 5593 5591
5483 5484 5485 5487 5490 5493 5497 5501 5505 5508 5512 5515 5516 5511 5511 5513 5515 5518 5526 5538 5550 5559 5570 5577 5581 5585 5587 5589 5590 5592 5592 5592 5593 5593 5593 5593 5593 5593 5592 5592 5591 5588 5589
5488 5487 5488 5490 5493 5496 5500 5503 5506 5510 5513 5516 5517 5517 5513 5514 5518 5522 5530 5542 5554 5564 5572 5579 5584 5587 5589 5591 5592 5593 5592 5591 5592 5592 5592 5592 5592 5592 5591 5590 5588 5587 5587
5493 5494 5492 5496 5499 5501 5503 5505 5509 5511 5515 5517 5520 5521 5520 5524 5527 5531 5539 5548 5558 5567 5575 5582 5587 5590 5592 5593 5593 5593 5592 5592 5592 5592 5591 5591 5591 5590 5589 5588 5586 5586 5585
5499 5500 5501 5503 5504 5505 5507 5509 5512 5515 5518 5521 5522 5520 5521 5530 5535 5540 5547 5555 5563 5572 5580 5586 5589 5592 5594 5595 5595 5594 5593 5592 5592 5592 5591 5590 5590 5589 5588 5586 5585 5584 5582
5507 5508 5508 5509 5509 5509 5512 5514 5517 5521 5524 5527 5528 5528 5531 5540 5544 5550 5556 5562 5570 5576 5583 5588 5591 5594 5596 5597 5598 5597 5595 5594 5594 5593 5591 5589 5588 5587 5586 5584 5583 5580 5579
5515 5515 5516 5517 5518 5519 5520 5522 5525 5529 5532 5535 5537 5539 5543 5549 5553 5557 5563 5569 5575 5581 5586 5591 5595 5597 5598 5599 5599 5600 5599 5597 5596 5593 5591 5588 5587 5585 5584 5581 5580 5578 5575
5527 5526 5526 5527 5528 5529 5531 5533 5536 5539 5542 5544 5547 5549 5553 5557 5560 5564 5569 5575 5580 5585 5590 5594 5598 5600 5599 5599 5600 5600 5599 5597 5595 5592 5590 5588 5586 5584 5582 5579 5577 5575 5573
5540 5539 5539 5539 5539 5541 5542 5545 5547 5549 5552 5555 5557 5560 5563 5566 5569 5572 5576 5580 5584 5589 5593 5597 5599 5601 5600 5600 5599 5596 5595 5593 5591 5589 5588 5585 5584 5582 5580 5578 5576 5573 5571